Weather History for PAOM - April, 2013

Change the Weather History Date:

Saturday, April 20, 2013

  Actual Average Record
Temperature  
Mean Temperature 21 °F 23 °F  
Max Temperature 32 °F 30 °F 47 °F (2014)
Min Temperature 10 °F 16 °F -15 °F (1966)
Degree Days  
Heating Degree Days 44 42  
Month to date heating degree days 1053 948  
Since 1 July heating degree days 12342 11926  
Cooling Degree Days 0    
Month to date cooling degree days 0  
Year to date cooling degree days 0  
Moisture  
Dew Point 13 °F    
Average Humidity 0    
Maximum Humidity 0    
Minimum Humidity 0    
Precipitation  
Precipitation 0.00 in 0.02 in 0.20 in (1937)
Month to date precipitation 0.25 0.48  
Year to date precipitation 2.41 3.00  
Snow  
Snow 0.00 in 0.30 in 2.30 in (1937)
Month to date snowfall 3.9 5.5  
Since 1 July snowfall 54.3 71.1  
Snow Depth 17.00 in    
Sea Level Pressure  
Sea Level Pressure 30.45 in    
Wind  
Wind Speed 0 mph (West)    
Max Wind Speed 5 mph    
Max Gust Speed 7 mph    
Visibility 10 miles    
Events      
T = Trace of Precipitation, MM = Missing Value Source: NWS Daily Summary

Daily Weather History Graph

Daily Weather History Graph

Search for Another Location

Airport or City:

Trip Planner

Search our weather history database for the weather conditions in past years. The results will help you decide how hot, cold, wet, or windy it might be!

Date:

Astronomy

Apr. 20, 2013 Rise Set
Actual Time 7:08 AM AKDT 10:54 PM AKDT
Civil Twilight 6:08 AM AKDT 11:55 PM AKDT
Nautical Twilight 4:28 AM AKDT 1:39 AM AKDT
Astronomical Twilight Sun does not set Sun does not set
Moon 4:06 PM AKDT (4/20) 5:57 AM AKDT (4/20)
Length of Visible Light 17h 47m
Length of Day
15h 46m
Waxing Gibbous, 72% of the Moon is Illuminated
Apr 20
Waxing Gibbous
Apr 25
Full
May 2
Last Quarter
May 9
New
May 17
First Quarter

Hourly Weather History & Observations

Time (AKDT) Temp. Windchill Dew Point Humidity Pressure Visibility Wind Dir Wind Speed Gust Speed Precip Events Conditions
12:53 AM 19.0 °F - 12.9 °F 77% 30.44 in 10.0 mi Calm Calm - N/A   Mostly Cloudy
1:53 AM 17.1 °F - 10.9 °F 77% 30.45 in 10.0 mi Calm Calm - N/A   Overcast
2:53 AM 17.1 °F - 10.0 °F 74% 30.44 in 10.0 mi Calm Calm - N/A   Overcast
3:53 AM 16.0 °F - 10.9 °F 81% 30.43 in 10.0 mi Calm Calm - N/A   Overcast
4:53 AM 12.0 °F - 7.0 °F 80% 30.43 in 10.0 mi Calm Calm - N/A   Overcast
5:53 AM 12.9 °F - 7.0 °F 77% 30.42 in 10.0 mi Calm Calm - N/A   Mostly Cloudy
6:53 AM 12.9 °F - 7.0 °F 77% 30.41 in 10.0 mi Calm Calm - N/A   Mostly Cloudy
7:53 AM 12.9 °F 6.9 °F 6.1 °F 74% 30.42 in 10.0 mi NW 3.5 mph - N/A   Mostly Cloudy
8:53 AM 16.0 °F - 7.0 °F 68% 30.43 in 10.0 mi Calm Calm - N/A   Mostly Cloudy
9:53 AM 16.0 °F - 6.1 °F 65% 30.43 in 10.0 mi Calm Calm - N/A   Mostly Cloudy
10:53 AM 21.9 °F - 9.0 °F 58% 30.43 in 10.0 mi Calm Calm - N/A   Scattered Clouds
11:53 AM 26.1 °F - 10.9 °F 53% 30.44 in 10.0 mi Calm Calm - N/A   Partly Cloudy
12:53 PM 27.0 °F - 15.1 °F 61% 30.45 in 10.0 mi Calm Calm - N/A   Partly Cloudy
1:53 PM 27.0 °F 23.0 °F 16.0 °F 63% 30.47 in 10.0 mi WSW 3.5 mph - N/A   Clear
2:53 PM 26.1 °F - 19.0 °F 75% 30.47 in 10.0 mi Calm Calm - N/A   Partly Cloudy
3:53 PM 28.0 °F 24.2 °F 16.0 °F 61% 30.47 in 10.0 mi SW 3.5 mph - N/A   Partly Cloudy
4:53 PM 28.0 °F - 16.0 °F 61% 30.48 in 10.0 mi Calm Calm - N/A   Partly Cloudy
5:53 PM 28.9 °F - 17.1 °F 61% 30.49 in 10.0 mi Calm Calm - N/A   Clear
6:53 PM 28.9 °F - 19.0 °F 67% 30.49 in 10.0 mi Calm Calm - N/A   Clear
7:53 PM 32.0 °F - 19.0 °F 59% 30.48 in 10.0 mi Calm Calm - N/A   Clear
8:53 PM 30.0 °F - 21.0 °F 69% 30.48 in 10.0 mi Calm Calm - N/A   Clear
9:53 PM 27.0 °F - 19.9 °F 75% 30.47 in 10.0 mi Calm Calm - N/A   Clear
10:53 PM 21.0 °F - 17.1 °F 85% 30.47 in 10.0 mi Calm Calm - N/A   Clear
11:53 PM 17.1 °F - 14.0 °F 88% 30.49 in 10.0 mi Calm Calm - N/A   Clear